Time,TemperatureF,DewpointF,PressureIn,WindDirection,WindDirectionDegrees,WindSpeedMPH,WindSpeedGustMPH,Humidity,HourlyPrecipIn,Conditions,Clouds,dailyrainin,SoftwareType,DateUTC
2013-02-24 00:01:00,23.0,10.0,-100.00,NNE,18,8.0,13.0,57,-99.99,,,-99.99,,2013-02-24 08:01:00,
2013-02-24 00:11:00,23.0,10.0,-100.00,NNE,18,8.0,13.0,57,-99.99,,,-99.99,,2013-02-24 08:11:00,
2013-02-24 00:22:00,23.0,10.0,-100.00,NNE,24,7.0,12.0,56,-99.99,,,-99.99,,2013-02-24 08:22:00,
2013-02-24 00:31:00,23.0,10.0,-100.00,NNE,24,7.0,12.0,56,-99.99,,,-99.99,,2013-02-24 08:31:00,
2013-02-24 00:41:00,23.0,10.0,-100.00,NE,38,7.0,11.0,57,-99.99,,,-99.99,,2013-02-24 08:41:00,
2013-02-24 00:54:00,23.0,10.0,-100.00,NE,38,7.0,11.0,57,-99.99,,,-99.99,,2013-02-24 08:54:00,
2013-02-24 01:01:00,23.0,10.0,-100.00,NNE,30,7.0,11.0,57,-99.99,,,-99.99,,2013-02-24 09:01:00,
2013-02-24 01:11:00,23.0,10.0,-100.00,NNE,30,7.0,11.0,57,-99.99,,,-99.99,,2013-02-24 09:11:00,
2013-02-24 01:21:00,23.0,10.0,-100.00,NNE,27,7.0,11.0,57,-99.99,,,-99.99,,2013-02-24 09:21:00,
2013-02-24 01:31:00,23.0,10.0,-100.00,NNE,27,7.0,11.0,57,-99.99,,,-99.99,,2013-02-24 09:31:00,
2013-02-24 01:41:00,23.0,10.0,-100.00,NNE,27,7.0,11.0,57,-99.99,,,-99.99,,2013-02-24 09:41:00,
2013-02-24 02:01:00,20.0,10.0,-100.00,East,83,1.0,3.0,64,-99.99,,,-99.99,,2013-02-24 10:01:00,
2013-02-24 02:11:00,20.0,10.0,-100.00,East,83,1.0,3.0,64,-99.99,,,-99.99,,2013-02-24 10:11:00,
2013-02-24 02:21:00,20.0,10.0,-100.00,ENE,71,2.0,5.0,65,-99.99,,,-99.99,,2013-02-24 10:21:00,
2013-02-24 02:31:00,20.0,10.0,-100.00,ENE,71,2.0,5.0,65,-99.99,,,-99.99,,2013-02-24 10:31:00,
2013-02-24 02:41:00,20.0,10.0,-100.00,ENE,71,2.0,5.0,65,-99.99,,,-99.99,,2013-02-24 10:41:00,
2013-02-24 02:52:00,20.0,10.0,-100.00,ENE,68,1.0,4.0,65,-99.99,,,-99.99,,2013-02-24 10:52:00,
2013-02-24 03:01:00,20.0,10.0,-100.00,ENE,68,1.0,4.0,65,-99.99,,,-99.99,,2013-02-24 11:01:00,
2013-02-24 03:11:00,21.0,10.0,-100.00,NE,35,3.0,6.0,64,-99.99,,,-99.99,,2013-02-24 11:11:00,
2013-02-24 03:21:00,21.0,10.0,-100.00,NE,35,3.0,6.0,64,-99.99,,,-99.99,,2013-02-24 11:21:00,
2013-02-24 03:32:00,20.0,11.0,-100.00,NNE,30,3.0,8.0,66,-99.99,,,-99.99,,2013-02-24 11:32:00,
2013-02-24 03:41:00,20.0,11.0,-100.00,NNE,30,3.0,8.0,66,-99.99,,,-99.99,,2013-02-24 11:41:00,
2013-02-24 03:45:00,21.0,11.0,-100.00,North,360,6.0,8.0,65,-99.99,,,-99.99,,2013-02-24 11:45:00,
2013-02-24 03:53:00,21.0,11.0,-100.00,North,7,5.0,7.0,64,-99.99,,,-99.99,,2013-02-24 11:53:00,
2013-02-24 04:01:00,21.0,11.0,-100.00,North,7,5.0,7.0,64,-99.99,,,-99.99,,2013-02-24 12:01:00,
2013-02-24 04:05:00,20.0,11.0,-100.00,North,4,6.0,8.0,67,-99.99,,,-99.99,,2013-02-24 12:05:00,
2013-02-24 04:11:00,21.0,11.0,-100.00,NNE,27,5.0,9.0,65,-99.99,,,-99.99,,2013-02-24 12:11:00,
2013-02-24 04:21:00,21.0,11.0,-100.00,NNE,27,5.0,9.0,65,-99.99,,,-99.99,,2013-02-24 12:21:00,
2013-02-24 04:32:00,21.0,11.0,-100.00,North,360,6.0,8.0,65,-99.99,,,-99.99,,2013-02-24 12:32:00,
2013-02-24 04:56:00,20.0,11.0,-100.00,North,4,6.0,8.0,67,-99.99,,,-99.99,,2013-02-24 12:56:00,
2013-02-24 05:33:00,20.0,11.0,-100.00,North,0,6.0,8.0,67,-99.99,,,-99.99,,2013-02-24 13:33:00,
2013-02-24 05:43:00,20.0,11.0,-100.00,North,0,6.0,8.0,67,-99.99,,,-99.99,,2013-02-24 13:43:00,
2013-02-24 05:54:00,20.0,11.0,-100.00,North,0,6.0,8.0,68,-99.99,,,-99.99,,2013-02-24 13:54:00,
2013-02-24 06:03:00,20.0,11.0,-100.00,North,0,6.0,8.0,68,-99.99,,,-99.99,,2013-02-24 14:03:00,
2013-02-24 06:13:00,20.0,11.0,-100.00,North,1,6.0,8.0,68,-99.99,,,-99.99,,2013-02-24 14:13:00,
2013-02-24 06:23:00,20.0,11.0,-100.00,North,1,6.0,8.0,68,-99.99,,,-99.99,,2013-02-24 14:23:00,
2013-02-24 06:43:00,21.0,11.0,-100.00,North,0,7.0,12.0,66,-99.99,,,-99.99,,2013-02-24 14:43:00,
2013-02-24 06:54:00,21.0,11.0,-100.00,NNE,24,5.0,9.0,66,-99.99,,,-99.99,,2013-02-24 14:54:00,
2013-02-24 07:02:00,21.0,11.0,-100.00,NNE,24,5.0,9.0,66,-99.99,,,-99.99,,2013-02-24 15:02:00,
2013-02-24 07:12:00,21.0,11.0,-100.00,North,4,6.0,10.0,66,-99.99,,,-99.99,,2013-02-24 15:12:00,
2013-02-24 07:22:00,21.0,11.0,-100.00,North,4,6.0,10.0,66,-99.99,,,-99.99,,2013-02-24 15:22:00,
2013-02-24 07:53:00,20.0,11.0,-100.00,ENE,66,2.0,4.0,68,-99.99,,,-99.99,,2013-02-24 15:53:00,
2013-02-24 08:01:00,20.0,11.0,-100.00,ENE,66,2.0,4.0,68,-99.99,,,-99.99,,2013-02-24 16:01:00,
2013-02-24 08:11:00,20.0,11.0,-100.00,NW,304,0.0,4.0,69,-99.99,,,-99.99,,2013-02-24 16:11:00,
2013-02-24 08:21:00,20.0,11.0,-100.00,NW,304,0.0,4.0,69,-99.99,,,-99.99,,2013-02-24 16:21:00,
2013-02-24 08:31:00,21.0,12.0,-100.00,ENE,71,3.0,5.0,66,-99.99,,,-99.99,,2013-02-24 16:31:00,
2013-02-24 08:41:00,21.0,12.0,-100.00,ENE,71,3.0,5.0,66,-99.99,,,-99.99,,2013-02-24 16:41:00,
2013-02-24 08:52:00,23.0,12.0,-100.00,ENE,59,4.0,7.0,64,-99.99,,,-99.99,,2013-02-24 16:52:00,
2013-02-24 09:01:00,23.0,12.0,-100.00,ENE,59,4.0,7.0,64,-99.99,,,-99.99,,2013-02-24 17:01:00,
2013-02-24 09:11:00,24.0,11.0,-100.00,ENE,58,6.0,8.0,57,-99.99,,,-99.99,,2013-02-24 17:11:00,
2013-02-24 09:21:00,24.0,11.0,-100.00,ENE,58,6.0,8.0,57,-99.99,,,-99.99,,2013-02-24 17:21:00,
2013-02-24 09:32:00,26.0,11.0,-100.00,ESE,123,2.0,8.0,53,-99.99,,,-99.99,,2013-02-24 17:32:00,
2013-02-24 09:41:00,26.0,11.0,-100.00,ESE,123,2.0,8.0,53,-99.99,,,-99.99,,2013-02-24 17:41:00,
2013-02-24 09:52:00,26.0,11.0,-100.00,SSE,162,4.0,8.0,52,-99.99,,,-99.99,,2013-02-24 17:52:00,
2013-02-24 10:01:00,26.0,11.0,-100.00,SSE,162,4.0,8.0,52,-99.99,,,-99.99,,2013-02-24 18:01:00,
2013-02-24 10:11:00,27.0,11.0,-100.00,SSE,148,2.0,6.0,50,-99.99,,,-99.99,,2013-02-24 18:11:00,
2013-02-24 10:22:00,27.0,11.0,-100.00,SSE,148,2.0,6.0,50,-99.99,,,-99.99,,2013-02-24 18:22:00,
2013-02-24 10:31:00,28.0,11.0,-100.00,ESE,114,4.0,8.0,48,-99.99,,,-99.99,,2013-02-24 18:31:00,
2013-02-24 10:42:00,28.0,11.0,-100.00,ESE,114,4.0,8.0,48,-99.99,,,-99.99,,2013-02-24 18:42:00,
2013-02-24 10:52:00,28.0,11.0,-100.00,SSE,147,4.0,11.0,48,-99.99,,,-99.99,,2013-02-24 18:52:00,
2013-02-24 11:01:00,28.0,11.0,-100.00,SSE,147,4.0,11.0,48,-99.99,,,-99.99,,2013-02-24 19:01:00,
2013-02-24 11:11:00,29.0,9.0,-100.00,ENE,73,4.0,11.0,42,-99.99,,,-99.99,,2013-02-24 19:11:00,
2013-02-24 11:22:00,29.0,9.0,-100.00,ENE,73,4.0,11.0,42,-99.99,,,-99.99,,2013-02-24 19:22:00,
2013-02-24 11:32:00,31.0,8.0,-100.00,East,92,4.0,11.0,38,-99.99,,,-99.99,,2013-02-24 19:32:00,
2013-02-24 11:41:00,31.0,8.0,-100.00,East,92,4.0,11.0,38,-99.99,,,-99.99,,2013-02-24 19:41:00,
2013-02-24 11:52:00,31.0,8.0,-100.00,ENE,73,4.0,11.0,37,-99.99,,,-99.99,,2013-02-24 19:52:00,
2013-02-24 12:02:00,31.0,8.0,-100.00,ENE,73,4.0,11.0,37,-99.99,,,-99.99,,2013-02-24 20:02:00,
2013-02-24 12:11:00,31.0,5.0,-100.00,ESE,112,4.0,8.0,32,-99.99,,,-99.99,,2013-02-24 20:11:00,
2013-02-24 12:21:00,31.0,5.0,-100.00,ESE,112,4.0,8.0,32,-99.99,,,-99.99,,2013-02-24 20:21:00,
2013-02-24 12:31:00,32.0,3.0,-100.00,ESE,113,4.0,7.0,28,-99.99,,,-99.99,,2013-02-24 20:31:00,
2013-02-24 12:41:00,32.0,3.0,-100.00,ESE,113,4.0,7.0,28,-99.99,,,-99.99,,2013-02-24 20:41:00,
2013-02-24 12:52:00,33.0,6.0,-100.00,East,95,3.0,9.0,31,-99.99,,,-99.99,,2013-02-24 20:52:00,
2013-02-24 13:01:00,33.0,6.0,-100.00,East,95,3.0,9.0,31,-99.99,,,-99.99,,2013-02-24 21:01:00,
2013-02-24 13:11:00,35.0,7.0,-100.00,ESE,120,3.0,9.0,31,-99.99,,,-99.99,,2013-02-24 21:11:00,
2013-02-24 13:21:00,35.0,7.0,-100.00,ESE,120,3.0,9.0,31,-99.99,,,-99.99,,2013-02-24 21:21:00,
2013-02-24 13:32:00,34.0,7.0,-100.00,ESE,123,4.0,9.0,32,-99.99,,,-99.99,,2013-02-24 21:32:00,
2013-02-24 13:41:00,34.0,7.0,-100.00,ESE,123,4.0,9.0,32,-99.99,,,-99.99,,2013-02-24 21:41:00,
2013-02-24 14:11:00,36.0,6.0,-100.00,SE,140,3.0,8.0,28,-99.99,,,-99.99,,2013-02-24 22:11:00,
2013-02-24 14:21:00,36.0,6.0,-100.00,SE,140,3.0,8.0,28,-99.99,,,-99.99,,2013-02-24 22:21:00,
2013-02-24 14:31:00,37.0,7.0,-100.00,SSE,162,2.0,8.0,29,-99.99,,,-99.99,,2013-02-24 22:31:00,
2013-02-24 14:41:00,37.0,7.0,-100.00,SSE,162,2.0,8.0,29,-99.99,,,-99.99,,2013-02-24 22:41:00,
2013-02-24 14:52:00,37.0,7.0,-100.00,NE,49,3.0,8.0,28,-99.99,,,-99.99,,2013-02-24 22:52:00,
2013-02-24 15:02:00,37.0,7.0,-100.00,NE,49,3.0,8.0,28,-99.99,,,-99.99,,2013-02-24 23:02:00,
2013-02-24 15:31:00,37.0,6.0,-100.00,ENE,66,4.0,8.0,26,-99.99,,,-99.99,,2013-02-24 23:31:00,
2013-02-24 15:41:00,37.0,6.0,-100.00,ENE,66,4.0,8.0,26,-99.99,,,-99.99,,2013-02-24 23:41:00,
2013-02-24 15:52:00,38.0,6.0,-100.00,East,99,3.0,8.0,26,-99.99,,,-99.99,,2013-02-24 23:52:00,
2013-02-24 16:01:00,38.0,6.0,-100.00,East,99,3.0,8.0,26,-99.99,,,-99.99,,2013-02-25 00:01:00,
2013-02-24 16:11:00,38.0,7.0,-100.00,East,95,3.0,6.0,27,-99.99,,,-99.99,,2013-02-25 00:11:00,
2013-02-24 16:21:00,38.0,7.0,-100.00,East,95,3.0,6.0,27,-99.99,,,-99.99,,2013-02-25 00:21:00,
2013-02-24 16:52:00,38.0,5.0,-100.00,East,82,2.0,5.0,24,-99.99,,,-99.99,,2013-02-25 00:52:00,
2013-02-24 17:01:00,38.0,5.0,-100.00,East,82,2.0,5.0,24,-99.99,,,-99.99,,2013-02-25 01:01:00,
2013-02-24 17:11:00,39.0,6.0,-100.00,East,97,2.0,5.0,25,-99.99,,,-99.99,,2013-02-25 01:11:00,
2013-02-24 17:21:00,39.0,6.0,-100.00,East,97,2.0,5.0,25,-99.99,,,-99.99,,2013-02-25 01:21:00,
2013-02-24 17:52:00,37.0,7.0,-100.00,SE,133,1.0,4.0,27,-99.99,,,-99.99,,2013-02-25 01:52:00,
2013-02-24 18:01:00,37.0,7.0,-100.00,SE,133,1.0,4.0,27,-99.99,,,-99.99,,2013-02-25 02:01:00,
2013-02-24 18:11:00,34.0,7.0,-100.00,North,350,4.0,8.0,32,-99.99,,,-99.99,,2013-02-25 02:11:00,
2013-02-24 18:21:00,34.0,7.0,-100.00,North,350,4.0,8.0,32,-99.99,,,-99.99,,2013-02-25 02:21:00,
2013-02-24 18:31:00,33.0,7.0,-100.00,North,354,6.0,10.0,33,-99.99,,,-99.99,,2013-02-25 02:31:00,
2013-02-24 18:41:00,33.0,7.0,-100.00,North,354,6.0,10.0,33,-99.99,,,-99.99,,2013-02-25 02:41:00,
2013-02-24 18:52:00,32.0,5.0,-100.00,North,350,5.0,8.0,31,-99.99,,,-99.99,,2013-02-25 02:52:00,
2013-02-24 19:01:00,32.0,5.0,-100.00,North,350,5.0,8.0,31,-99.99,,,-99.99,,2013-02-25 03:01:00,
2013-02-24 19:11:00,32.0,5.0,-100.00,North,350,4.0,7.0,32,-99.99,,,-99.99,,2013-02-25 03:11:00,
2013-02-24 19:21:00,32.0,5.0,-100.00,North,350,4.0,7.0,32,-99.99,,,-99.99,,2013-02-25 03:21:00,
2013-02-24 19:31:00,31.0,4.0,-100.00,NNW,336,4.0,8.0,31,-99.99,,,-99.99,,2013-02-25 03:31:00,
2013-02-24 19:41:00,31.0,4.0,-100.00,NNW,336,4.0,8.0,31,-99.99,,,-99.99,,2013-02-25 03:41:00,
2013-02-24 19:52:00,30.0,6.0,-100.00,West,264,1.0,3.0,36,-99.99,,,-99.99,,2013-02-25 03:52:00,
2013-02-24 20:01:00,30.0,6.0,-100.00,West,264,1.0,3.0,36,-99.99,,,-99.99,,2013-02-25 04:01:00,
2013-02-24 20:31:00,29.0,6.0,-100.00,West,268,1.0,4.0,36,-99.99,,,-99.99,,2013-02-25 04:31:00,
2013-02-24 20:41:00,29.0,6.0,-100.00,West,268,1.0,4.0,36,-99.99,,,-99.99,,2013-02-25 04:41:00,
2013-02-24 20:52:00,29.0,5.0,-100.00,NNE,20,1.0,3.0,35,-99.99,,,-99.99,,2013-02-25 04:52:00,
2013-02-24 21:01:00,29.0,5.0,-100.00,NNE,20,1.0,3.0,35,-99.99,,,-99.99,,2013-02-25 05:01:00,
2013-02-24 21:11:00,29.0,5.0,-100.00,NNW,336,1.0,3.0,35,-99.99,,,-99.99,,2013-02-25 05:11:00,
2013-02-24 21:22:00,29.0,5.0,-100.00,NNW,336,1.0,3.0,35,-99.99,,,-99.99,,2013-02-25 05:22:00,
2013-02-24 21:31:00,28.0,5.0,-100.00,WNW,289,0.0,2.0,36,-99.99,,,-99.99,,2013-02-25 05:31:00,
2013-02-24 21:41:00,28.0,5.0,-100.00,WNW,289,0.0,2.0,36,-99.99,,,-99.99,,2013-02-25 05:41:00,
2013-02-24 21:52:00,28.0,4.0,-100.00,West,261,1.0,2.0,35,-99.99,,,-99.99,,2013-02-25 05:52:00,
2013-02-24 22:02:00,28.0,4.0,-100.00,West,261,1.0,2.0,35,-99.99,,,-99.99,,2013-02-25 06:02:00,
2013-02-24 23:11:00,28.0,4.0,-100.00,South,178,0.0,1.0,35,-99.99,,,-99.99,,2013-02-25 07:11:00,
2013-02-24 23:21:00,28.0,4.0,-100.00,South,178,0.0,1.0,35,-99.99,,,-99.99,,2013-02-25 07:21:00,
2013-02-24 23:31:00,28.0,4.0,-100.00,NW,316,0.0,0.0,34,-99.99,,,-99.99,,2013-02-25 07:31:00,
2013-02-24 23:41:00,28.0,4.0,-100.00,NW,316,0.0,0.0,34,-99.99,,,-99.99,,2013-02-25 07:41:00,